TimeEDT,TemperatureF,Dew PointF,Humidity,Sea Level PressureIn,VisibilityMPH,Wind Direction,Wind SpeedMPH,Gust SpeedMPH,PrecipitationIn,Events,Conditions,WindDirDegrees,DateUTC
12:53 AM,57.9,51.1,78,29.85,10.0,NW,6.9,-,N/A,,Clear,320,2012-10-16 04:53:00
1:53 AM,55.0,48.9,80,29.85,10.0,NW,5.8,-,N/A,,Clear,320,2012-10-16 05:53:00
2:53 AM,54.0,46.0,75,29.86,10.0,NW,8.1,-,N/A,,Clear,310,2012-10-16 06:53:00
3:53 AM,52.0,44.1,74,29.87,10.0,NW,4.6,-,N/A,,Clear,310,2012-10-16 07:53:00
4:53 AM,51.1,44.1,77,29.88,10.0,NW,5.8,-,N/A,,Clear,320,2012-10-16 08:53:00
5:53 AM,50.0,43.0,77,29.90,10.0,NNW,5.8,-,N/A,,Clear,330,2012-10-16 09:53:00
6:53 AM,48.9,43.0,80,29.92,10.0,NW,3.5,-,N/A,,Clear,320,2012-10-16 10:53:00
8:53 AM,54.0,44.1,69,29.96,10.0,NNW,9.2,-,N/A,,Clear,330,2012-10-16 12:53:00
9:53 AM,59.0,46.0,62,29.96,10.0,North,8.1,-,N/A,,Clear,350,2012-10-16 13:53:00
10:53 AM,62.1,44.1,52,29.95,10.0,North,9.2,-,N/A,,Clear,10,2012-10-16 14:53:00
11:53 AM,64.0,44.1,48,29.94,10.0,North,6.9,-,N/A,,Clear,10,2012-10-16 15:53:00
12:53 PM,66.0,43.0,43,29.93,10.0,NNE,5.8,-,N/A,,Clear,20,2012-10-16 16:53:00
1:53 PM,66.9,44.1,44,29.90,10.0,Variable,4.6,-,N/A,,Clear,0,2012-10-16 17:53:00
2:53 PM,66.9,44.1,44,29.89,10.0,NNW,3.5,-,N/A,,Clear,330,2012-10-16 18:53:00
3:53 PM,68.0,44.1,42,29.88,10.0,Variable,5.8,-,N/A,,Clear,0,2012-10-16 19:53:00
4:53 PM,68.0,43.0,40,29.87,10.0,Calm,Calm,-,N/A,,Clear,0,2012-10-16 20:53:00
5:53 PM,66.0,44.1,45,29.87,10.0,Calm,Calm,-,N/A,,Clear,0,2012-10-16 21:53:00
6:53 PM,54.0,50.0,86,29.89,10.0,Calm,Calm,-,N/A,,Clear,0,2012-10-16 22:53:00
7:53 PM,50.0,48.0,93,29.91,10.0,Calm,Calm,-,N/A,,Clear,0,2012-10-16 23:53:00
8:53 PM,50.0,48.0,93,29.93,10.0,Calm,Calm,-,N/A,,Clear,0,2012-10-17 00:53:00
9:29 PM,50.0,46.4,87,29.92,2.0,Calm,Calm,-,N/A,,Clear,0,2012-10-17 01:29:00
9:38 PM,48.2,46.4,93,29.92,7.0,Calm,Calm,-,N/A,,Clear,0,2012-10-17 01:38:00
9:53 PM,48.0,46.0,93,29.92,2.5,Calm,Calm,-,N/A,,Clear,0,2012-10-17 01:53:00
10:01 PM,48.2,46.4,93,29.92,8.0,Calm,Calm,-,N/A,,Clear,0,2012-10-17 02:01:00
10:53 PM,46.0,45.0,96,29.93,8.0,Calm,Calm,-,N/A,,Clear,0,2012-10-17 02:53:00
11:19 PM,46.4,44.6,93,29.92,3.0,Calm,Calm,-,N/A,,Clear,0,2012-10-17 03:19:00
11:53 PM,45.0,44.1,97,29.94,9.0,SSW,3.5,-,N/A,,Clear,210,2012-10-17 03:53:00